[[{"header":{"parameterUnit":"m.s-1","parameterCategory":1,"la1":30.2991,"la2":30.254,"lo1":-89.0895,"lo2":-89.0444,"dy":0.0017,"dx":0.0017,"nx":28,"ny":28,"refTime":"2023-10-05T09:00:00:Z","depth":0,"parameterNumber":2,"parameterNumberName":"U-component_of_WINDS"},"data":[0,0,0,0,0,0,0,0,0,0,0,0,0,0,0,0,0,0,0,0,0,0,0,0,0,0,0,0,0,0,0,0,0,0,0,0,0,0,0,0,0,0,0,0,0,0,0,0,0,0,0,0,0,0,0,0,0,0,0.0398,0.0397,0,0.0341,0.0341,0.034,0.0342,0.0343,0.0343,0.0344,0.0283,0.0281,0.0279,0,0,0,0,0,0,0,0,0,0,0,0,0,0.0506,0.0504,0.0398,0.0397,0.0397,0.0341,0.0341,0.034,0.0342,0.0343,0.0344,0.0345,0.0284,0.0281,0.0278,0,0,0,0,0,0,0,0,0,0,0,0,0,0.0455,0.0503,0.0398,0.0391,0.039,0.0342,0.0341,0.034,0.0342,0.0343,0.0344,0.0345,0.0285,0.0281,0.0278,0.0232,0,0,0.0267,0.0266,0,0,0,0,0,0,0,0,0.0458,0.0451,0.0393,0.0391,0.039,0.035,0.0356,0.0304,0.0341,0.036,0.0344,0.0346,0.0304,0.0299,0.0286,0.023,0.0227,0.0267,0.0265,0.0263,0.0262,0,0,0,0,0,0,0,0.0461,0.0453,0.0375,0.0392,0.039,0.039,0.0384,0.0346,0.0326,0.0358,0.0358,0.0352,0.0304,0.0289,0.0284,0.0226,0.0267,0.0264,0.0262,0.026,0.0129,0.0128,0,0,0,0,0,0,0.0467,0.0456,0.0377,0.0374,0.0428,0.0387,0.038,0.0362,0.0326,0.0322,0.0351,0.0352,0.0295,0.0289,0.0282,0.0226,0.0263,0.026,0.0258,0.0131,0.0129,0.0127,0,0,0,0,0,0,0.0469,0.046,0.038,0.0415,0.0405,0.0384,0.0363,0.036,0.0345,0.0321,0.0317,0.034,0.0295,0.0287,0.0245,0.0224,0.0258,0.0255,0.0132,0.013,0.0128,0.0113,0,0,0,0,0,0,0.0472,0.046,0.0443,0.0415,0.0403,0.0344,0.0361,0.0358,0.034,0.0341,0.0309,0.0305,0.0296,0.025,0.0241,0.022,0.0252,0.0134,0.0131,0.0129,0.0116,0.0111,0.0107,0,0,0,0,0,0.0476,0.0441,0.0442,0.0433,0.0381,0.0342,0.0336,0.0326,0.0338,0.032,0.0304,0.0306,0.0228,0.0246,0.0236,0.0213,0.0135,0.0132,0.0129,0.0118,0.0112,0.0107,0,0,0,0,0,0,0.0466,0.0437,0.0438,0.0393,0.037,0.0343,0.032,0.0321,0.0293,0.0295,0.0284,0.0277,0.0234,0.022,0.024,0.0167,0.0183,0.0178,0.0178,0.0172,0.0168,0.0172,0.0249,0,0,0,0,0,0.0459,0.0431,0.0406,0.0369,0.0358,0.0341,0.0324,0.0318,0.0294,0.0284,0.0265,0.0241,0.0211,0.0191,0.0162,0.0114,0.0107,0.0094,0.0089,0.0086,0.0081,0.0054,0.0048,0.0117,0.0117,0.0118,0,0,0.0443,0.0424,0.0406,0.0366,0.0348,0.0318,0.0333,0.03,0.0278,0.0279,0.0238,0.0223,0.0195,0.015,0.0129,0.0136,0.0061,0.0082,0.008,0.0076,0.0051,0.0044,0.0038,0.0115,0.0116,0.0116,0,0,0.0399,0.0382,0.0349,0.0331,0.0304,0.0293,0.0285,0.0258,0.0248,0.0207,0.0207,0.018,0.0129,0.0109,0.0092,0.0042,0.0042,0.0033,0.001,-0.0016,-0.0021,-0.0026,-0.0045,-0.0052,0.0028,0.0028,0.0028,0,0.0383,0.0339,0.0331,0.0299,0.0281,0.0282,0.0248,0.023,0.0195,0.0182,0.0191,0.0127,0.0108,0.0058,0.0046,0.0033,0.0023,0.0035,-0.002,-0.0025,-0.003,-0.0048,-0.0055,0.0027,0.0027,0.0027,0.0028,0,0.0319,0.0289,0.0265,0.0232,0.0211,0.0178,0.0165,0.0145,0.0142,0.0131,0.0089,0.0067,0.0033,0.0021,0.0018,-0.003,-0.0024,-0.0017,-0.0002,-0.0037,-0.0055,-0.0062,0.0026,0.0026,0.0026,0.0027,0,0,0.0265,0.023,0.0221,0.0206,0.0176,0.0152,0.0119,0.0088,0.007,0.0046,0.0018,-0.0025,-0.0019,-0.0038,-0.0043,-0.0066,-0.0105,-0.0056,-0.0057,-0.0066,-0.0159,-0.0166,-0.0174,-0.0104,-0.0105,-0.0106,-0.0158,0,0.0217,0.0159,0.0152,0.01,0.0072,0.0073,0.0044,0.0023,0.0011,-0.0015,-0.0028,-0.0058,-0.0047,-0.0058,-0.008,-0.0096,-0.0125,-0.0092,-0.0132,-0.0134,-0.0127,-0.0183,-0.019,-0.0237,-0.0164,-0.0165,-0.0166,0,0.0153,0.0128,0.0073,0.0048,0.0036,0.001,-0.0019,-0.0044,-0.0068,-0.0075,-0.0096,-0.0098,-0.0133,-0.0114,-0.0162,-0.014,-0.0157,-0.0167,-0.0169,-0.0174,-0.0153,-0.0191,-0.0252,-0.026,-0.0177,-0.0176,-0.0175,0,0.0117,0.007,0.0031,0.0019,-0.0011,-0.0029,-0.0043,-0.0065,-0.0084,-0.011,-0.0122,-0.0152,-0.0168,-0.0191,-0.0202,-0.0187,-0.025,-0.0232,-0.0258,-0.0258,-0.0273,-0.0272,-0.0339,-0.0281,-0.0281,-0.0281,-0.028,0,0.0063,0.0029,0.0015,-0.0009,-0.0047,-0.0054,-0.0092,-0.0104,-0.0124,-0.0151,-0.0151,-0.0177,-0.0189,-0.0216,-0.0224,-0.0264,-0.0271,-0.0278,-0.028,-0.0279,-0.0278,-0.0292,-0.0289,-0.0282,-0.0282,-0.0282,-0.0281,0,0.0016,0.0006,-0.0037,-0.0061,-0.0068,-0.0095,-0.0116,-0.0139,-0.0149,-0.0183,-0.0192,-0.0209,-0.0241,-0.0253,-0.0292,-0.0298,-0.0344,-0.0343,-0.0336,-0.0337,-0.0362,-0.036,-0.0441,-0.0453,-0.0385,-0.0386,-0.0387,0,-0.0019,-0.0044,-0.0071,-0.0088,-0.0102,-0.013,-0.0149,-0.0157,-0.0176,-0.0205,-0.0225,-0.0257,-0.0283,-0.0334,-0.0351,-0.0381,-0.0381,-0.0407,-0.0386,-0.0384,-0.0383,-0.0382,-0.0385,-0.0412,-0.0413,-0.0413,-0.0414,0,-0.008,-0.0083,-0.0109,-0.0137,-0.0159,-0.0182,-0.0204,-0.0218,-0.023,-0.0252,-0.0284,-0.0304,-0.0343,-0.0375,-0.0406,-0.042,-0.042,-0.042,-0.0428,-0.0428,-0.0423,-0.0427,-0.0348,-0.0419,-0.0418,-0.0418,-0.0418,-0.0417,-0.0123,-0.0145,-0.0167,-0.0197,-0.0214,-0.0234,-0.0257,-0.027,-0.0297,-0.0329,-0.0332,-0.0367,-0.039,-0.0431,-0.0446,-0.0474,-0.0468,-0.0479,-0.0482,-0.0485,-0.0487,-0.0417,-0.048,-0.048,-0.048,-0.0479,-0.0479,0,-0.0185,-0.0198,-0.0225,-0.0255,-0.0278,-0.0273,-0.0297,-0.0317,-0.0348,-0.0369,-0.0394,-0.0431,-0.0461,-0.0479,-0.051,-0.0529,-0.0529,-0.0537,-0.0537,-0.054,-0.0491,-0.0482,-0.0536,-0.0536,-0.0536,-0.0536,-0.0536,-0.0536,-0.022,-0.0259,-0.0265,-0.0312,-0.0325,-0.0359,-0.0373,-0.0392,-0.0409,-0.045,-0.0475,-0.0486,-0.0506,-0.0538,-0.0566,-0.057,-0.0582,-0.0591,-0.0595,-0.0549,-0.0543,-0.0538,-0.0529,-0.0593,-0.0593,-0.0642,-0.0642,-0.0642]},{"header":{"parameterUnit":"m.s-1","parameterCategory":1,"la1":30.2991,"la2":30.254,"lo1":-89.0895,"lo2":-89.0444,"dy":0.0017,"dx":0.0017,"nx":28,"ny":28,"refTime":"2023-10-05T09:00:00:Z","depth":0,"parameterNumber":3,"parameterNumberName":"V-component_of_WINDS"},"data":[0,0,0,0,0,0,0,0,0,0,0,0,0,0,0,0,0,0,0,0,0,0,0,0,0,0,0,0,0,0,0,0,0,0,0,0,0,0,0,0,0,0,0,0,0,0,0,0,0,0,0,0,0,0,0,0,0,0,-6.9764,-6.9765,0,-6.9872,-6.9873,-6.9875,-6.9778,-6.9774,-6.977,-6.9766,-6.9873,-6.9879,-6.9886,0,0,0,0,0,0,0,0,0,0,0,0,0,-6.9468,-6.9474,-6.9763,-6.9765,-6.9766,-6.9872,-6.9874,-6.9875,-6.9779,-6.9774,-6.9769,-6.9765,-6.9871,-6.9878,-6.9886,0,0,0,0,0,0,0,0,0,0,0,0,0,-6.9588,-6.9476,-6.9763,-6.9731,-6.9729,-6.9872,-6.9874,-6.9875,-6.978,-6.9774,-6.9768,-6.9762,-6.9868,-6.9878,-6.9887,-7.0066,0,0,-6.9917,-6.9921,0,0,0,0,0,0,0,0,-6.9582,-6.9599,-6.9734,-6.9733,-6.9732,-6.9806,-6.9808,-6.9939,-6.9781,-6.976,-6.9766,-6.9759,-6.9855,-6.9865,-6.9899,-7.0071,-7.0075,-6.9918,-6.9924,-6.9928,-6.9931,0,0,0,0,0,0,0,-6.9573,-6.9594,-6.9806,-6.9736,-6.9735,-6.971,-6.972,-6.9833,-6.9839,-6.9762,-6.9755,-6.9769,-6.9853,-6.9889,-6.99,-7.0077,-6.9918,-6.9926,-6.9932,-6.9936,-7.0401,-7.0407,0,0,0,0,0,0,-6.9569,-6.9588,-6.9803,-6.9809,-6.9641,-6.972,-6.9732,-6.9788,-6.9838,-6.984,-6.9774,-6.9765,-6.9876,-6.9889,-6.9904,-7.0117,-6.9928,-6.9937,-6.9943,-7.0395,-7.0402,-7.0409,0,0,0,0,0,0,-6.9563,-6.9589,-6.9798,-6.9697,-6.9722,-6.9731,-6.9795,-6.9793,-6.9829,-6.9847,-6.9848,-6.9811,-6.9871,-6.989,-7.0027,-7.0119,-6.9941,-6.995,-7.0387,-7.0397,-7.0406,-7.0544,0,0,0,0,0,0,-6.9555,-6.9588,-6.9657,-6.9699,-6.9728,-6.9921,-6.9801,-6.9799,-6.9847,-6.9835,-6.9882,-6.9884,-6.9868,-7.0013,-7.0036,-7.0129,-6.9958,-7.0379,-7.0391,-7.0403,-7.0531,-7.0557,-7.0579,0,0,0,0,0,-6.9545,-6.969,-6.9661,-6.9687,-6.9814,-6.9927,-6.9943,-6.9924,-6.9855,-6.9924,-6.9935,-6.9882,-7.0105,-7.0027,-7.0053,-7.015,-7.0373,-7.0388,-7.0402,-7.052,-7.0552,-7.0579,0,0,0,0,0,0,-6.9655,-6.9695,-6.9663,-6.9826,-6.9874,-6.991,-6.9996,-6.9958,-7.0025,-7.0011,-6.9983,-6.9994,-7.0139,-7.0158,-7.0071,-7.0326,-7.0227,-7.0248,-7.0308,-7.0339,-7.0362,-7.0355,-6.9966,0,0,0,0,0,-6.9699,-6.9789,-6.9818,-6.9959,-6.9985,-6.9987,-7.0035,-7.0017,-7.0065,-7.0084,-7.0105,-7.0153,-7.0233,-7.0287,-7.0362,-7.0533,-7.0542,-7.0612,-7.0637,-7.0656,-7.0675,-7.0767,-7.0799,-7.0457,-7.0457,-7.0457,0,0,-6.979,-6.9822,-6.988,-6.9982,-7.0017,-7.011,-7.0005,-7.0106,-7.0175,-7.0099,-7.023,-7.0248,-7.0298,-7.0453,-7.0522,-7.0474,-7.0771,-7.0675,-7.0691,-7.0698,-7.0785,-7.0818,-7.0847,-7.0467,-7.0466,-7.0464,0,0,-7.0003,-7.0036,-7.0158,-7.0196,-7.0251,-7.0252,-7.0281,-7.0324,-7.0334,-7.0465,-7.041,-7.049,-7.0629,-7.0668,-7.0706,-7.0935,-7.0888,-7.096,-7.1086,-7.1177,-7.1204,-7.1227,-7.131,-7.1339,-7.0978,-7.0978,-7.0978,0,-7.0108,-7.0247,-7.0225,-7.0333,-7.0379,-7.0316,-7.0439,-7.0476,-7.0552,-7.0585,-7.053,-7.0704,-7.0734,-7.0898,-7.0954,-7.0986,-7.1018,-7.0955,-7.1202,-7.1225,-7.1247,-7.1325,-7.1356,-7.0986,-7.0985,-7.0985,-7.0984,0,-7.0374,-7.0471,-7.0563,-7.0641,-7.0697,-7.0811,-7.0806,-7.0865,-7.0842,-7.0848,-7.0983,-7.1016,-7.1098,-7.1135,-7.1112,-7.1296,-7.1264,-7.1206,-7.1106,-7.1289,-7.1361,-7.1391,-7.0999,-7.0995,-7.0993,-7.0991,0,0,-7.0659,-7.0725,-7.0759,-7.0794,-7.0851,-7.0925,-7.1036,-7.1117,-7.1169,-7.1224,-7.1316,-7.1436,-7.1383,-7.1426,-7.1407,-7.1487,-7.1667,-7.1418,-7.1419,-7.1464,-7.1872,-7.1916,-7.1951,-7.1636,-7.1642,-7.1646,-7.1868,0,-7.0875,-7.1071,-7.1055,-7.1239,-7.1329,-7.1271,-7.1368,-7.1413,-7.1422,-7.1497,-7.1506,-7.1592,-7.1515,-7.1541,-7.1617,-7.1629,-7.1748,-7.1612,-7.1721,-7.1725,-7.1712,-7.1989,-7.2036,-7.2244,-7.1896,-7.1901,-7.1905,0,-7.1152,-7.122,-7.1414,-7.1458,-7.1495,-7.1583,-7.1657,-7.1731,-7.178,-7.178,-7.183,-7.1798,-7.1909,-7.1807,-7.1959,-7.1867,-7.191,-7.1923,-7.193,-7.194,-7.1827,-7.2007,-7.231,-7.2341,-7.1949,-7.1946,-7.1942,0,-7.1342,-7.1481,-7.1615,-7.1647,-7.1702,-7.1765,-7.179,-7.1834,-7.1884,-7.1948,-7.198,-7.2056,-7.2097,-7.2156,-7.2144,-7.2071,-7.23,-7.2197,-7.2303,-7.2304,-7.2354,-7.2352,-7.2669,-7.2381,-7.2381,-7.238,-7.238,0,-7.1585,-7.1707,-7.1702,-7.1785,-7.1918,-7.1899,-7.2031,-7.2049,-7.2088,-7.2173,-7.2126,-7.2206,-7.2186,-7.2264,-7.2256,-7.2384,-7.2402,-7.2405,-7.2402,-7.241,-7.241,-7.2439,-7.2424,-7.2389,-7.2387,-7.2385,-7.2384,0,-7.182,-7.1822,-7.1965,-7.2006,-7.2019,-7.2116,-7.215,-7.2228,-7.2233,-7.234,-7.2364,-7.2372,-7.2463,-7.2457,-7.2558,-7.2553,-7.2711,-7.269,-7.2695,-7.2691,-7.2798,-7.2789,-7.3145,-7.3191,-7.2874,-7.2877,-7.2879,0,-7.1976,-7.2068,-7.212,-7.2174,-7.2205,-7.2292,-7.2344,-7.2327,-7.2383,-7.2447,-7.2517,-7.2603,-7.2672,-7.2819,-7.2833,-7.291,-7.2891,-7.3011,-7.2902,-7.2908,-7.2894,-7.2889,-7.2898,-7.3032,-7.3036,-7.3039,-7.3041,0,-7.2252,-7.2248,-7.2326,-7.2405,-7.2469,-7.2529,-7.2584,-7.2631,-7.262,-7.2685,-7.2778,-7.2831,-7.2936,-7.3022,-7.3097,-7.312,-7.308,-7.3075,-7.3104,-7.3114,-7.3114,-7.3116,-7.2754,-7.3067,-7.3064,-7.3062,-7.3061,-7.306,-7.2452,-7.2532,-7.2582,-7.267,-7.271,-7.2763,-7.2839,-7.2854,-7.2932,-7.3018,-7.3003,-7.3108,-7.3154,-7.325,-7.3281,-7.3362,-7.3319,-7.336,-7.3371,-7.3382,-7.3395,-7.3101,-7.3375,-7.3374,-7.3374,-7.3373,-7.3372,0,-7.2726,-7.2756,-7.2837,-7.2917,-7.2987,-7.2944,-7.3003,-7.3063,-7.3157,-7.3205,-7.3274,-7.3381,-7.3465,-7.3486,-7.3566,-7.3627,-7.361,-7.3649,-7.3644,-7.3651,-7.3428,-7.3396,-7.3661,-7.3661,-7.3661,-7.3661,-7.3661,-7.3661,-7.2877,-7.3011,-7.3014,-7.3166,-7.3194,-7.3298,-7.3336,-7.3384,-7.3422,-7.3545,-7.3616,-7.3629,-7.3667,-7.3749,-7.3824,-7.3828,-7.386,-7.3907,-7.3903,-7.3695,-7.3666,-7.3639,-7.3608,-7.3913,-7.3914,-7.4119,-7.4121,-7.4122]}]]